Regional Weather Roundup
Issued by NWS Portland, ME

Current Version | Previous Version | Text Only | Print | Product List | Glossary Off
Versions: 1 2 3 4 5 6 7 8 9 10 11 12 13 14 15 16 17 18 19 20 21 22 23 24 25 26 27 28 29 30 31 32 33 34 35 36 37 38 39 40 41 42 43 44 45 46 47 48 49 50
000 ASUS41 KGYX 291910 RWRGYX WEATHER ROUNDUP FOR MAINE AND NEW HAMPSHIRE NATIONAL WEATHER SERVICE GRAY ME 300 PM EDT TUE JUL 29 2014 MEZ002-005-006-010-012-015-018-020-021-024-026-027-029-292000- MAINE CITY SKY/WX TMP DP RH WIND PRES REMARKS PORTLAND PTSUNNY 72 60 66 SE13 29.81R SANFORD SUNNY 75 52 43 W8G18 29.82R BAR HARBOR PTSUNNY 73 61 64 NW3 29.79R WISCASSET CLOUDY 74 59 59 CALM 29.81R ROCKLAND PTSUNNY 73 61 64 W3 29.79R FRYEBURG MOSUNNY 77 51 40 VRB3 29.81R LEWISTONAUBURN CLOUDY 72 54 53 N5 29.81R AUGUSTA MOSUNNY 73 53 49 W9 29.82R WATERVILLE CLOUDY 72 55 56 NW5 29.77R BANGOR MOSUNNY 76 56 49 SW7 29.79R GREENVILLE N/A 65 52 62 NW9 29.81R MILLINOCKET MOSUNNY 72 56 57 NW14G22 29.79R HOULTON CLOUDY 73 58 59 VRB7 29.74R PRESQUE ISLE CLOUDY 68 54 60 W8 29.75R FRENCHVILLE CLOUDY 64 55 72 W14 29.73R CARIBOU CLOUDY 68 57 68 W9 29.73R $$ NHZ002-005-008-009-011-012-014-292000- NEW HAMPSHIRE CITY SKY/WX TMP DP RH WIND PRES REMARKS PORTSMOUTH PTSUNNY 77 55 46 W8 29.81R ROCHESTER SUNNY 76 53 44 MISG 29.81R NASHUA PTSUNNY 76 54 46 NW6 29.82S MANCHESTER PTSUNNY 76 52 43 NW13 29.81R CONCORD MOSUNNY 74 51 44 NW9 29.82S LACONIA N/A 72 48 43 W10G16 29.82R PLYMOUTH FAIR 71 51 48 NW10 29.83R BERLIN PTSUNNY 68 50 52 VRB7 29.85R WHITEFIELD PTSUNNY 70 51 51 W6 29.85R JAFFREY MOSUNNY 71 49 45 W8 29.86R LEBANON MOSUNNY 72 49 44 NW7 29.84R MT WASHINGTON PTSUNNY 48 43 81 W7 N/A VSB 1 $$ VTZ005-007-008-292000- VERMONT CITY SKY/WX TMP DP RH WIND PRES REMARKS ST JOHNSBURY N/A 70 49 47 MISG 29.84R MONTPELIER PTSUNNY 66 50 56 NW7 29.90R BURLINGTON PTSUNNY 70 50 49 NW9 29.86R $$ MAZ007-012-024-CTZ003-RIZ002-NYZ038-NYZ072-292000- SOUTHERN NEW ENGLAND AND NY CITY SKY/WX TMP DP RH WIND PRES REMARKS WORCESTER PTSUNNY 70 54 56 W10 29.86R NANTUCKET SUNNY 71 61 70 SW12 29.86R PROVIDENCE PTSUNNY 77 54 44 W7 29.84R HARTFORD PTSUNNY 76 51 41 NW8 29.85R ALBANY MOSUNNY 72 49 44 W8 29.87R NEW YORK CITY PTSUNNY 76 51 41 NW10 29.87S $$ ANZ081-ANZ082-ANZ150-NHZ014-MEZ023>029-292000- COASTAL MARINE OBSERVATIONS STATION/POSITION TIME TEMP WIND PRES WAVE AIR SEA DIR/SP/G HT/PER (UTC) (F) (DEG/KT/KT) (MB) (FT/S) MOUNT DESERT ROC 1900 60 1009.5R MATINICUS ROCK 1800 240/ 11/ 12 1008.5R PORTLAND WX BUOY 1900 66 63 110/ 6/ 8 1009.2R 4/ 8 WELLS 1900 76 52 280/ 5/ 10 1008.5R ISLE OF SHOALS 1800 69 240/ 6/ 6 1008.7R JEFFREYS LEDGE 1900 64 N/A 3/ 8 CASHES LEDGE BUO 1900 67 67 220/ 6/ 8 1009.3R 5/ 9 $$ .............KEY.............. WCI - WIND CHILL TC - TEMPERATURE IN CELSIUS VSB - VISIBILITY IN MILES HX - HEAT INDEX FAIR- INDICATES FEW OR NO CLOUDS BELOW 12,000 FT, WITH NO SIGNIFICANT WEATHER AND/OR OBSTRUCTIONS TO VISIBILITY.

USA.gov is the U.S. government's official web portal to all federal, state and local government web resources and services.